User: anonymous   Login
Location: Caltech
(34.1382°N, 118.1253°W)
Time: 22:49:45
(UTC-07:00)
Language:

SO-50 - Orbit

View from above orbital plane
View from above orbital plane
View from above satellite
View from above satellite

Ground track
Ground track

The orbit data is extracted from the following two-line orbital elements,

1 27607U 02058C   15208.11286268  .00000087  00000-0  33407-4 0  9993
2 27607 064.5550 076.8834 0082526 280.6128 078.5687 14.74796237677174
Epoch (UTC): 27 July 2015 02:42:31
Eccentricity: 0.0082526
inclination: 64.5550°
perigee height: 588 km
apogee height: 704 km
right ascension of ascending node: 76.8834°
argument of perigee: 280.6128°
revolutions per day: 14.74796237
mean anomaly at epoch: 78.5687°
orbit number at epoch: 67717

The dashed part of the orbit path shows where the satellite is in the earth's shadow,  

DLR